Orbital elements of COSMOS 1275 DEB
| Launched | 3 June 1981 |
| Flight ended | – |
| Launch site | Plesetsk Missile and Space Complex, Russia |
| Owner | Commonwealth of Independent States (former USSR) |
| NORAD ID | 12648 |
| Date fetched |
Epoch osculation |
Inc. [°] |
Ecc. | RA asc node [hr] |
Arg Peri. [°] |
Mean anom [°] |
Mean motion [rev/day] |
Abs. mag |
| Date fetched |
Epoch osculation |
Inc. [°] |
Ecc. | RA asc node [hr] |
Arg Peri. [°] |
Mean anom [°] |
Mean motion [rev/day] |
Abs. mag |
| 2026 May 01 17:56 | 2026 Apr 30 14:38:13 | 82.9695 | 0.00127 | 16.1679 | 307.3956 | 63.4129 | 13.81744 | – |
| 2026 Apr 30 17:56 | 2026 Apr 30 14:38:13 | 82.9695 | 0.00127 | 16.1679 | 307.3956 | 63.4129 | 13.81744 | – |
| 2026 Apr 29 17:57 | 2026 Apr 24 11:11:42 | 82.9687 | 0.00129 | 16.4736 | 326.5765 | 63.4129 | 13.81744 | – |
| 2026 Apr 28 17:56 | 2026 Apr 24 11:11:42 | 82.9687 | 0.00129 | 16.4736 | 326.5765 | 63.4129 | 13.81744 | – |
| 2026 Apr 27 17:58 | 2026 Apr 24 11:11:42 | 82.9687 | 0.00129 | 16.4736 | 326.5765 | 63.4129 | 13.81744 | – |
| 2026 Apr 26 17:58 | 2026 Apr 24 11:11:42 | 82.9687 | 0.00129 | 16.4736 | 326.5765 | 63.4129 | 13.81744 | – |
| 2026 Apr 25 17:58 | 2026 Apr 24 11:11:42 | 82.9687 | 0.00129 | 16.4736 | 326.5765 | 63.4129 | 13.81744 | – |
| 2026 Apr 24 17:59 | 2026 Apr 24 11:11:42 | 82.9687 | 0.00129 | 16.4736 | 326.5765 | 63.4129 | 13.81744 | – |
| 2026 Apr 23 17:57 | 2026 Apr 19 03:05:44 | 82.9677 | 0.00133 | 16.7393 | 342.8225 | 63.4129 | 13.81744 | – |
| 2026 Apr 22 17:57 | 2026 Apr 19 03:05:44 | 82.9677 | 0.00133 | 16.7393 | 342.8225 | 63.4129 | 13.81744 | – |
| 2026 Apr 21 17:57 | 2026 Apr 19 03:05:44 | 82.9677 | 0.00133 | 16.7393 | 342.8225 | 63.4129 | 13.81744 | – |
| 2026 Apr 20 17:57 | 2026 Apr 19 03:05:44 | 82.9677 | 0.00133 | 16.7393 | 342.8225 | 63.4129 | 13.81744 | – |
| 2026 Apr 19 17:58 | 2026 Apr 19 03:05:44 | 82.9677 | 0.00133 | 16.7393 | 342.8225 | 63.4129 | 13.81744 | – |
| 2026 Apr 18 17:56 | 2026 Apr 13 04:34:57 | 82.9669 | 0.00137 | 17.0348 | 0.2491 | 63.4129 | 13.81744 | – |
| 2026 Apr 16 17:57 | 2026 Apr 13 04:34:57 | 82.9669 | 0.00137 | 17.0348 | 0.2491 | 63.4129 | 13.81744 | – |
| 2026 Apr 14 17:57 | 2026 Apr 13 04:34:57 | 82.9669 | 0.00137 | 17.0348 | 0.2491 | 63.4129 | 13.81744 | – |
| 2026 Apr 13 17:57 | 2026 Apr 13 04:34:57 | 82.9669 | 0.00137 | 17.0348 | 0.2491 | 63.4129 | 13.81744 | – |
| 2026 Apr 12 17:57 | 2026 Apr 08 11:02:15 | 82.9664 | 0.00141 | 17.2704 | 13.7429 | 63.4129 | 13.81744 | – |
| 2026 Apr 11 17:57 | 2026 Apr 08 11:02:15 | 82.9664 | 0.00141 | 17.2704 | 13.7429 | 63.4129 | 13.81744 | – |
| 2026 Apr 10 17:58 | 2026 Apr 08 11:02:15 | 82.9664 | 0.00141 | 17.2704 | 13.7429 | 63.4129 | 13.81744 | – |
| 2026 Apr 09 18:01 | 2026 Apr 08 11:02:15 | 82.9664 | 0.00141 | 17.2704 | 13.7429 | 63.4129 | 13.81744 | – |
| 2026 Apr 08 17:57 | 2026 Apr 08 11:02:15 | 82.9664 | 0.00141 | 17.2704 | 13.7429 | 63.4129 | 13.81744 | – |
| 2026 Apr 07 17:57 | 2026 Apr 02 06:09:09 | 82.9654 | 0.00145 | 17.5792 | 30.8763 | 63.4129 | 13.81744 | – |
| 2026 Apr 06 17:57 | 2026 Apr 02 06:09:09 | 82.9654 | 0.00145 | 17.5792 | 30.8763 | 63.4129 | 13.81744 | – |
| 2026 Apr 05 17:56 | 2026 Apr 02 06:09:09 | 82.9654 | 0.00145 | 17.5792 | 30.8763 | 63.4129 | 13.81744 | – |
| 2026 Apr 04 17:57 | 2026 Apr 02 06:09:09 | 82.9654 | 0.00145 | 17.5792 | 30.8763 | 63.4129 | 13.81744 | – |